カタログに戻る

SL-8 DEB

運用中UNKNOWN
NORAD 1549·DEBRIS·🇷🇺 Russia

打ち上げ Mar 15, 1965 から Baikonur Cosmodrome

Loading…

次のパス (今後24時間)

TLE

最新Source: Space-Track

元期: Sep 14, 2026, 09:22 UTC

1 01549U 65020CV  26257.39096884  .00000136  00000-0  31487-3 0  9997
2 01549  56.1692  32.9417 0836512 227.5194 125.2053 12.64504242826229

AllMySatでSL-8 DEBをリアルタイム追跡

Download on the App Store